Location: *
(46.1200°N, 11.2700°E)
Time: 16:47:46
(UTC+00:00)

ATLAS CENTAUR R/B - Pass Details

Date: 02 March 2021
Orbit: 475 x 670 km, 64.7° (Epoch: 30 March)

Event Time Altitude Azimuth Distance (km) Brightness Sun altitude
Rises 18:16:21 0° 198° (SSW) 2,523 4.9 -13.5°
Reaches altitude 10° 18:18:33 10° 191° (S) 1,640 3.8 -13.9°
Maximum altitude 18:21:59 40° 120° (ESE) 709 1.4 -14.5°
Enters shadow 18:23:33 25° 68° (ENE) 987 2.1 -14.8°
